GJOHN PAKH-PADU

Flight info

Callsign GJOHN
Flight time 4h 53m
Altitude 8500
Route AKHIOK FIGAN PERRYVILLE FOX BAY HBT WEST ANCHOR COVE SCOTCH CAP LIGHT AKUTAN UNALGA ISLAND DUTCH HARBOR UNALASKA
Aircraft C182/L-VGDW/C

Departure

Time 2026-04-28 14:19
Airport Akhiok Airport (PAKH)

Arrival

Time 2026-04-28 19:12
Airport Tom Madsen (Dutch Harbor) Airport (PADU)
Time Latitude Longitude Altitude Speed Heading
2026-04-28 14:15 56.94037 -154.17872 48 ft 0 kts 332°
2026-04-28 14:15 56.94038 -154.17872 48 ft 0 kts 332°
2026-04-28 14:16 56.94042 -154.17879 48 ft 2 kts 309°
2026-04-28 14:16 56.94033 -154.17883 48 ft 3 kts 108°
2026-04-28 14:17 56.94048 -154.17796 48 ft 11 kts 68°
2026-04-28 14:17 56.94070 -154.17679 48 ft 3 kts 108°
2026-04-28 14:17 56.94056 -154.17640 48 ft 4 kts 161°
2026-04-28 14:17 56.94038 -154.17665 48 ft 3 kts 242°
2026-04-28 14:18 56.94036 -154.17672 48 ft 3 kts 243°
2026-04-28 14:18 56.93945 -154.17990 52 ft 51 kts 241°
2026-04-28 14:18 56.93742 -154.18723 162 ft 76 kts 238°
2026-04-28 14:18 56.93507 -154.19523 510 ft 69 kts 241°
2026-04-28 14:19 56.93360 -154.20306 730 ft 75 kts 243°
2026-04-28 14:19 56.93137 -154.21197 977 ft 81 kts 240°
2026-04-28 14:19 56.92911 -154.22176 1216 ft 90 kts 253°
2026-04-28 14:19 56.93102 -154.23352 1461 ft 101 kts 289°
2026-04-28 14:20 56.93436 -154.24474 1714 ft 102 kts 288°
2026-04-28 14:20 56.93757 -154.25645 1971 ft 102 kts 286°
2026-04-28 14:20 56.94062 -154.26811 2226 ft 102 kts 285°
2026-04-28 14:20 56.94366 -154.27997 2474 ft 104 kts 285°
2026-04-28 14:21 56.94673 -154.29199 2724 ft 105 kts 286°
2026-04-28 14:21 56.94933 -154.30423 2969 ft 100 kts 270°
2026-04-28 14:21 56.94890 -154.31651 3217 ft 95 kts 255°
2026-04-28 14:21 56.94781 -154.32830 3467 ft 93 kts 253°
2026-04-28 14:22 56.94661 -154.33994 3715 ft 93 kts 253°
2026-04-28 14:22 56.94540 -154.35145 3963 ft 92 kts 252°
2026-04-28 14:22 56.94420 -154.36287 4210 ft 90 kts 252°
2026-04-28 14:22 56.94275 -154.37404 4462 ft 91 kts 247°
2026-04-28 14:23 56.94077 -154.38507 4711 ft 92 kts 246°
2026-04-28 14:23 56.93869 -154.39621 4961 ft 93 kts 246°
2026-04-28 14:23 56.93659 -154.40733 5205 ft 92 kts 245°
2026-04-28 14:23 56.93454 -154.41819 5455 ft 87 kts 245°
2026-04-28 14:24 56.93261 -154.42826 5696 ft 83 kts 244°
2026-04-28 14:24 56.93068 -154.43832 5901 ft 84 kts 244°
2026-04-28 14:24 56.92869 -154.44863 6072 ft 87 kts 245°
2026-04-28 14:24 56.92666 -154.45923 6247 ft 89 kts 245°
2026-04-28 14:25 56.92460 -154.46998 6422 ft 90 kts 245°
2026-04-28 14:25 56.92254 -154.48077 6597 ft 90 kts 245°
2026-04-28 14:25 56.92046 -154.49162 6773 ft 90 kts 245°
2026-04-28 14:25 56.91838 -154.50244 6947 ft 90 kts 245°
2026-04-28 14:26 56.91630 -154.51326 7121 ft 90 kts 245°
2026-04-28 14:26 56.91424 -154.52402 7294 ft 90 kts 245°
2026-04-28 14:26 56.91218 -154.53473 7468 ft 89 kts 244°
2026-04-28 14:26 56.91013 -154.54537 7640 ft 89 kts 245°
2026-04-28 14:27 56.90809 -154.55596 7811 ft 88 kts 244°
2026-04-28 14:27 56.90606 -154.56650 7983 ft 88 kts 244°
2026-04-28 14:27 56.90401 -154.57709 8157 ft 87 kts 244°
2026-04-28 14:27 56.90201 -154.58746 8328 ft 86 kts 244°
2026-04-28 14:28 56.90002 -154.59775 8478 ft 88 kts 244°
2026-04-28 14:28 56.89781 -154.60906 8497 ft 100 kts 245°
2026-04-28 14:28 56.89552 -154.62102 8498 ft 100 kts 246°
2026-04-28 14:28 56.89320 -154.63308 8498 ft 101 kts 246°
2026-04-28 14:29 56.89087 -154.64518 8499 ft 101 kts 246°
2026-04-28 14:29 56.88852 -154.65732 8499 ft 101 kts 246°
2026-04-28 14:29 56.88617 -154.66947 8499 ft 102 kts 246°
2026-04-28 14:29 56.88381 -154.68165 8499 ft 102 kts 246°
2026-04-28 14:30 56.88145 -154.69384 8499 ft 102 kts 245°
2026-04-28 14:30 56.87908 -154.70604 8499 ft 102 kts 245°
2026-04-28 14:30 56.87671 -154.71827 8499 ft 102 kts 245°
2026-04-28 14:30 56.87430 -154.73066 8498 ft 102 kts 245°
2026-04-28 14:31 56.87193 -154.74286 8498 ft 102 kts 245°
2026-04-28 14:31 56.86955 -154.75512 8498 ft 102 kts 245°
2026-04-28 14:31 56.86717 -154.76735 8497 ft 102 kts 245°
2026-04-28 14:31 56.86478 -154.77957 8497 ft 102 kts 245°
2026-04-28 14:32 56.86240 -154.79180 8497 ft 102 kts 245°
2026-04-28 14:32 56.86002 -154.80403 8496 ft 102 kts 245°
2026-04-28 14:32 56.85763 -154.81626 8496 ft 102 kts 245°
2026-04-28 14:32 56.85524 -154.82850 8496 ft 102 kts 245°
2026-04-28 14:33 56.85285 -154.84073 8499 ft 102 kts 245°
2026-04-28 14:33 56.85047 -154.85293 8500 ft 102 kts 245°
2026-04-28 14:33 56.84808 -154.86514 8499 ft 102 kts 245°
2026-04-28 14:33 56.84568 -154.87737 8499 ft 102 kts 245°
2026-04-28 14:34 56.84086 -154.90200 8499 ft 102 kts 245°
2026-04-28 14:34 56.83846 -154.91423 8498 ft 103 kts 245°
2026-04-28 14:34 56.83687 -154.92234 8498 ft 103 kts 245°
2026-04-28 14:35 56.83365 -154.93871 8497 ft 103 kts 245°
2026-04-28 14:35 56.83124 -154.95097 8497 ft 103 kts 245°
2026-04-28 14:35 56.82883 -154.96323 8497 ft 103 kts 245°
2026-04-28 14:35 56.82643 -154.97547 8496 ft 103 kts 245°
2026-04-28 14:36 56.82402 -154.98771 8496 ft 103 kts 245°
2026-04-28 14:36 56.82160 -154.99998 8495 ft 103 kts 245°
2026-04-28 14:36 56.81919 -155.01221 8495 ft 103 kts 245°
2026-04-28 14:36 56.81677 -155.02447 8495 ft 103 kts 245°
2026-04-28 14:37 56.81432 -155.03689 8494 ft 103 kts 245°
2026-04-28 14:37 56.81189 -155.04918 8494 ft 103 kts 245°
2026-04-28 14:37 56.80947 -155.06143 8493 ft 103 kts 245°
2026-04-28 14:37 56.80705 -155.07369 8493 ft 103 kts 245°
2026-04-28 14:38 56.80462 -155.08596 8492 ft 103 kts 245°
2026-04-28 14:38 56.80220 -155.09820 8492 ft 103 kts 245°
2026-04-28 14:38 56.79977 -155.11047 8491 ft 103 kts 245°
2026-04-28 14:38 56.79733 -155.12274 8491 ft 103 kts 245°
2026-04-28 14:39 56.79490 -155.13502 8490 ft 103 kts 245°
2026-04-28 14:39 56.79247 -155.14728 8490 ft 103 kts 245°
2026-04-28 14:39 56.79003 -155.15955 8489 ft 103 kts 245°
2026-04-28 14:39 56.78759 -155.17183 8489 ft 103 kts 244°
2026-04-28 14:40 56.78515 -155.18411 8488 ft 103 kts 244°
2026-04-28 14:40 56.78432 -155.18825 8488 ft 103 kts 244°
2026-04-28 14:40 56.78026 -155.20868 8487 ft 103 kts 244°
2026-04-28 14:40 56.77778 -155.22111 8486 ft 103 kts 244°
2026-04-28 14:41 56.77533 -155.23339 8486 ft 103 kts 244°
2026-04-28 14:41 56.77288 -155.24569 8485 ft 103 kts 244°
2026-04-28 14:41 56.77043 -155.25796 8485 ft 103 kts 244°
2026-04-28 14:41 56.76798 -155.27026 8484 ft 103 kts 244°
2026-04-28 14:42 56.76552 -155.28255 8483 ft 103 kts 244°
2026-04-28 14:42 56.76306 -155.29485 8483 ft 103 kts 244°
2026-04-28 14:42 56.76060 -155.30715 8482 ft 103 kts 244°
2026-04-28 14:42 56.75814 -155.31945 8482 ft 103 kts 244°
2026-04-28 14:43 56.75567 -155.33177 8481 ft 104 kts 244°
2026-04-28 14:43 56.75321 -155.34405 8480 ft 104 kts 244°
2026-04-28 14:43 56.75073 -155.35637 8480 ft 104 kts 244°
2026-04-28 14:43 56.74822 -155.36888 8479 ft 104 kts 244°
2026-04-28 14:44 56.74574 -155.38125 8478 ft 104 kts 244°
2026-04-28 14:44 56.74325 -155.39364 8478 ft 104 kts 244°
2026-04-28 14:44 56.74076 -155.40605 8477 ft 105 kts 244°
2026-04-28 14:44 56.73826 -155.41843 8477 ft 105 kts 244°
2026-04-28 14:45 56.73576 -155.43087 8476 ft 105 kts 244°
2026-04-28 14:45 56.73325 -155.44332 8469 ft 105 kts 244°
2026-04-28 14:45 56.73073 -155.45584 8464 ft 105 kts 244°
2026-04-28 14:45 56.72906 -155.46411 8463 ft 105 kts 244°
2026-04-28 14:46 56.72569 -155.48083 8461 ft 105 kts 244°
2026-04-28 14:46 56.72317 -155.49331 8460 ft 105 kts 244°
2026-04-28 14:46 56.72065 -155.50578 8459 ft 105 kts 244°
2026-04-28 14:46 56.71809 -155.51841 8458 ft 105 kts 244°
2026-04-28 14:47 56.71642 -155.52665 8457 ft 105 kts 244°
2026-04-28 14:47 56.71390 -155.53914 8456 ft 105 kts 244°
2026-04-28 14:47 56.71138 -155.55159 8455 ft 105 kts 244°
2026-04-28 14:47 56.70885 -155.56404 8454 ft 105 kts 244°
2026-04-28 14:48 56.70632 -155.57651 8454 ft 105 kts 244°
2026-04-28 14:48 56.70380 -155.58896 8453 ft 105 kts 244°
2026-04-28 14:48 56.70126 -155.60145 8452 ft 105 kts 244°
2026-04-28 14:48 56.69873 -155.61389 8451 ft 105 kts 244°
2026-04-28 14:49 56.69619 -155.62637 8450 ft 105 kts 244°
2026-04-28 14:49 56.69363 -155.63899 8449 ft 105 kts 244°
2026-04-28 14:49 56.69109 -155.65144 8448 ft 105 kts 244°
2026-04-28 14:49 56.68855 -155.66391 8447 ft 105 kts 244°
2026-04-28 14:50 56.68601 -155.67637 8446 ft 105 kts 244°
2026-04-28 14:50 56.68346 -155.68886 8445 ft 105 kts 244°
2026-04-28 14:50 56.68092 -155.70134 8445 ft 105 kts 244°
2026-04-28 14:50 56.67837 -155.71380 8444 ft 105 kts 244°
2026-04-28 14:51 56.67582 -155.72628 8443 ft 105 kts 244°
2026-04-28 14:51 56.67328 -155.73874 8442 ft 105 kts 244°
2026-04-28 14:51 56.67072 -155.75121 8441 ft 105 kts 243°
2026-04-28 14:51 56.66817 -155.76370 8440 ft 105 kts 243°
2026-04-28 14:52 56.66561 -155.77617 8439 ft 105 kts 243°
2026-04-28 14:52 56.66306 -155.78864 8438 ft 105 kts 243°
2026-04-28 14:52 56.66046 -155.80129 8437 ft 106 kts 243°
2026-04-28 14:52 56.65791 -155.81374 8437 ft 106 kts 243°
2026-04-28 14:53 56.65534 -155.82624 8436 ft 106 kts 243°
2026-04-28 14:53 56.65278 -155.83869 8435 ft 106 kts 243°
2026-04-28 14:53 56.65021 -155.85120 8434 ft 106 kts 243°
2026-04-28 14:53 56.64764 -155.86369 8433 ft 106 kts 243°
2026-04-28 14:54 56.64508 -155.87613 8432 ft 106 kts 243°
2026-04-28 14:54 56.64250 -155.88863 8432 ft 106 kts 243°
2026-04-28 14:54 56.63993 -155.90109 8431 ft 106 kts 243°
2026-04-28 14:54 56.63742 -155.91332 8477 ft 102 kts 243°
2026-04-28 14:55 56.63493 -155.92533 8492 ft 102 kts 243°
2026-04-28 14:55 56.63243 -155.93743 8497 ft 103 kts 243°
2026-04-28 14:55 56.62990 -155.94963 8498 ft 104 kts 243°
2026-04-28 14:55 56.62733 -155.96207 8497 ft 104 kts 243°
2026-04-28 14:56 56.62478 -155.97442 8497 ft 105 kts 243°
2026-04-28 14:56 56.62221 -155.98682 8496 ft 105 kts 243°
2026-04-28 14:56 56.61964 -155.99925 8495 ft 105 kts 243°
2026-04-28 14:56 56.61709 -156.01162 8496 ft 104 kts 242°
2026-04-28 14:57 56.61457 -156.02377 8495 ft 102 kts 242°
2026-04-28 14:57 56.61291 -156.03174 8494 ft 102 kts 242°
2026-04-28 14:57 56.60959 -156.04767 8492 ft 101 kts 242°
2026-04-28 14:57 56.60712 -156.05955 8491 ft 100 kts 242°
2026-04-28 14:58 56.60466 -156.07136 8490 ft 100 kts 242°
2026-04-28 14:58 56.60221 -156.08314 8489 ft 100 kts 242°
2026-04-28 14:58 56.59976 -156.09491 8488 ft 100 kts 242°
2026-04-28 14:58 56.59731 -156.10667 8488 ft 100 kts 242°
2026-04-28 14:59 56.59483 -156.11857 8487 ft 100 kts 242°
2026-04-28 14:59 56.59238 -156.13031 8486 ft 100 kts 242°
2026-04-28 14:59 56.58993 -156.14205 8486 ft 100 kts 242°
2026-04-28 14:59 56.58748 -156.15376 8485 ft 100 kts 242°
2026-04-28 15:00 56.58503 -156.16551 8484 ft 100 kts 242°
2026-04-28 15:00 56.58258 -156.17724 8484 ft 100 kts 242°
2026-04-28 15:00 56.58013 -156.18894 8483 ft 100 kts 242°
2026-04-28 15:00 56.57768 -156.20065 8487 ft 99 kts 242°
2026-04-28 15:01 56.57523 -156.21233 8488 ft 99 kts 242°
2026-04-28 15:01 56.57279 -156.22402 8488 ft 99 kts 242°
2026-04-28 15:01 56.57034 -156.23570 8487 ft 99 kts 242°
2026-04-28 15:01 56.56788 -156.24741 8486 ft 99 kts 242°
2026-04-28 15:02 56.56540 -156.25925 8486 ft 99 kts 242°
2026-04-28 15:02 56.56294 -156.27096 8485 ft 100 kts 242°
2026-04-28 15:02 56.56048 -156.28268 8484 ft 100 kts 242°
2026-04-28 15:02 56.55802 -156.29436 8483 ft 100 kts 242°
2026-04-28 15:03 56.55556 -156.30608 8483 ft 100 kts 242°
2026-04-28 15:03 56.55309 -156.31780 8482 ft 100 kts 242°
2026-04-28 15:03 56.55063 -156.32949 8481 ft 100 kts 242°
2026-04-28 15:03 56.54816 -156.34119 8480 ft 100 kts 242°
2026-04-28 15:04 56.54570 -156.35288 8480 ft 100 kts 242°
2026-04-28 15:04 56.54323 -156.36459 8479 ft 100 kts 242°
2026-04-28 15:04 56.54076 -156.37630 8478 ft 100 kts 242°
2026-04-28 15:04 56.53828 -156.38801 8478 ft 100 kts 242°
2026-04-28 15:05 56.53580 -156.39976 8477 ft 100 kts 242°
2026-04-28 15:05 56.53329 -156.41163 8476 ft 100 kts 242°
2026-04-28 15:05 56.53081 -156.42337 8475 ft 100 kts 242°
2026-04-28 15:05 56.52831 -156.43515 8475 ft 100 kts 242°
2026-04-28 15:06 56.52582 -156.44693 8474 ft 100 kts 242°
2026-04-28 15:06 56.52333 -156.45869 8487 ft 99 kts 242°
2026-04-28 15:06 56.52086 -156.47032 8496 ft 99 kts 242°
2026-04-28 15:06 56.51836 -156.48210 8498 ft 99 kts 242°
2026-04-28 15:07 56.51588 -156.49378 8498 ft 100 kts 242°
2026-04-28 15:07 56.51339 -156.50549 8498 ft 100 kts 242°
2026-04-28 15:07 56.51089 -156.51725 8497 ft 100 kts 242°
2026-04-28 15:07 56.50839 -156.52904 8497 ft 100 kts 242°
2026-04-28 15:08 56.50589 -156.54081 8496 ft 100 kts 242°
2026-04-28 15:08 56.50338 -156.55258 8496 ft 101 kts 242°
2026-04-28 15:08 56.50086 -156.56439 8495 ft 101 kts 242°
2026-04-28 15:08 56.49836 -156.57616 8494 ft 101 kts 242°
2026-04-28 15:09 56.49584 -156.58798 8494 ft 101 kts 242°
2026-04-28 15:09 56.49332 -156.59977 8493 ft 101 kts 242°
2026-04-28 15:09 56.49080 -156.61157 8492 ft 101 kts 242°
2026-04-28 15:09 56.48910 -156.61954 8492 ft 101 kts 242°
2026-04-28 15:10 56.48576 -156.63516 8493 ft 100 kts 242°
2026-04-28 15:10 56.48322 -156.64704 8498 ft 100 kts 242°
2026-04-28 15:10 56.48070 -156.65881 8487 ft 101 kts 241°
2026-04-28 15:10 56.47814 -156.67076 8469 ft 102 kts 242°
2026-04-28 15:11 56.47558 -156.68274 8464 ft 102 kts 242°
2026-04-28 15:11 56.47302 -156.69468 8463 ft 102 kts 242°
2026-04-28 15:11 56.47046 -156.70660 8462 ft 102 kts 242°
2026-04-28 15:11 56.46791 -156.71852 8462 ft 102 kts 242°
2026-04-28 15:12 56.46535 -156.73044 8461 ft 102 kts 242°
2026-04-28 15:12 56.46279 -156.74233 8461 ft 102 kts 242°
2026-04-28 15:12 56.46023 -156.75424 8461 ft 102 kts 242°
2026-04-28 15:12 56.45768 -156.76611 8461 ft 102 kts 242°
2026-04-28 15:13 56.45512 -156.77801 8461 ft 102 kts 242°
2026-04-28 15:13 56.45255 -156.78991 8461 ft 102 kts 242°
2026-04-28 15:13 56.44996 -156.80195 8461 ft 102 kts 242°
2026-04-28 15:13 56.44739 -156.81387 8461 ft 102 kts 242°
2026-04-28 15:14 56.44483 -156.82575 8461 ft 102 kts 242°
2026-04-28 15:14 56.44226 -156.83764 8461 ft 102 kts 242°
2026-04-28 15:14 56.43969 -156.84955 8461 ft 102 kts 242°
2026-04-28 15:14 56.43712 -156.86144 8461 ft 102 kts 242°
2026-04-28 15:15 56.43454 -156.87334 8461 ft 102 kts 242°
2026-04-28 15:15 56.43197 -156.88525 8461 ft 102 kts 242°
2026-04-28 15:15 56.42952 -156.89656 8462 ft 101 kts 242°
2026-04-28 15:15 56.42698 -156.90827 8489 ft 100 kts 241°
2026-04-28 15:16 56.42445 -156.91993 8497 ft 100 kts 241°
2026-04-28 15:16 56.42191 -156.93161 8499 ft 101 kts 241°
2026-04-28 15:16 56.41935 -156.94339 8500 ft 101 kts 242°
2026-04-28 15:16 56.41678 -156.95526 8500 ft 102 kts 241°
2026-04-28 15:17 56.41416 -156.96732 8501 ft 102 kts 241°
2026-04-28 15:17 56.41157 -156.97927 8501 ft 103 kts 241°
2026-04-28 15:17 56.40896 -156.99126 8501 ft 103 kts 241°
2026-04-28 15:17 56.40635 -157.00325 8501 ft 103 kts 241°
2026-04-28 15:18 56.40374 -157.01524 8500 ft 103 kts 241°
2026-04-28 15:18 56.40113 -157.02726 8500 ft 103 kts 241°
2026-04-28 15:18 56.39851 -157.03928 8500 ft 103 kts 241°
2026-04-28 15:18 56.39589 -157.05128 8500 ft 103 kts 241°
2026-04-28 15:19 56.39326 -157.06333 8500 ft 103 kts 241°
2026-04-28 15:19 56.39064 -157.07535 8500 ft 103 kts 241°
2026-04-28 15:19 56.38801 -157.08739 8500 ft 103 kts 241°
2026-04-28 15:19 56.38538 -157.09942 8500 ft 103 kts 241°
2026-04-28 15:20 56.38271 -157.11161 8500 ft 103 kts 241°
2026-04-28 15:20 56.38007 -157.12366 8500 ft 103 kts 241°
2026-04-28 15:20 56.37744 -157.13570 8500 ft 103 kts 241°
2026-04-28 15:20 56.37480 -157.14772 8500 ft 103 kts 242°
2026-04-28 15:21 56.37216 -157.15977 8499 ft 104 kts 241°
2026-04-28 15:21 56.36950 -157.17189 8499 ft 104 kts 241°
2026-04-28 15:21 56.36685 -157.18399 8499 ft 104 kts 241°
2026-04-28 15:21 56.36418 -157.19612 8499 ft 104 kts 241°
2026-04-28 15:22 56.36152 -157.20826 8499 ft 104 kts 241°
2026-04-28 15:22 56.35885 -157.22038 8499 ft 104 kts 241°
2026-04-28 15:22 56.35618 -157.23252 8499 ft 104 kts 241°
2026-04-28 15:22 56.35351 -157.24463 8499 ft 104 kts 241°
2026-04-28 15:23 56.35083 -157.25680 8499 ft 104 kts 241°
2026-04-28 15:23 56.34816 -157.26894 8499 ft 104 kts 241°
2026-04-28 15:23 56.34544 -157.28124 8500 ft 104 kts 241°
2026-04-28 15:23 56.34276 -157.29339 8500 ft 104 kts 241°
2026-04-28 15:24 56.34008 -157.30556 8500 ft 105 kts 241°
2026-04-28 15:24 56.33740 -157.31769 8500 ft 105 kts 241°
2026-04-28 15:24 56.33471 -157.32984 8500 ft 105 kts 241°
2026-04-28 15:24 56.33202 -157.34198 8500 ft 105 kts 241°
2026-04-28 15:25 56.32934 -157.35413 8500 ft 105 kts 241°
2026-04-28 15:25 56.32664 -157.36629 8500 ft 105 kts 241°
2026-04-28 15:25 56.32394 -157.37848 8500 ft 105 kts 241°
2026-04-28 15:25 56.32123 -157.39070 8501 ft 105 kts 241°
2026-04-28 15:26 56.31853 -157.40290 8500 ft 105 kts 241°
2026-04-28 15:26 56.31580 -157.41517 8500 ft 105 kts 241°
2026-04-28 15:26 56.31305 -157.42757 8500 ft 106 kts 241°
2026-04-28 15:26 56.31033 -157.43983 8500 ft 106 kts 241°
2026-04-28 15:27 56.30760 -157.45208 8500 ft 106 kts 241°
2026-04-28 15:27 56.30487 -157.46434 8500 ft 106 kts 241°
2026-04-28 15:27 56.30215 -157.47658 8500 ft 106 kts 241°
2026-04-28 15:27 56.29942 -157.48883 8499 ft 106 kts 241°
2026-04-28 15:28 56.29669 -157.50108 8499 ft 106 kts 241°
2026-04-28 15:28 56.29396 -157.51333 8499 ft 106 kts 241°
2026-04-28 15:28 56.29122 -157.52557 8499 ft 106 kts 241°
2026-04-28 15:28 56.28848 -157.53783 8499 ft 106 kts 241°
2026-04-28 15:29 56.28575 -157.55008 8499 ft 106 kts 241°
2026-04-28 15:29 56.28301 -157.56230 8499 ft 106 kts 241°
2026-04-28 15:29 56.28027 -157.57456 8499 ft 106 kts 241°
2026-04-28 15:29 56.27753 -157.58680 8498 ft 106 kts 241°
2026-04-28 15:30 56.27475 -157.59921 8498 ft 106 kts 241°
2026-04-28 15:30 56.27201 -157.61144 8498 ft 106 kts 241°
2026-04-28 15:30 56.26926 -157.62367 8498 ft 106 kts 241°
2026-04-28 15:30 56.26651 -157.63593 8497 ft 106 kts 241°
2026-04-28 15:31 56.26375 -157.64820 8497 ft 106 kts 241°
2026-04-28 15:31 56.26099 -157.66049 8497 ft 106 kts 241°
2026-04-28 15:31 56.25822 -157.67281 8497 ft 106 kts 241°
2026-04-28 15:31 56.25544 -157.68515 8497 ft 107 kts 241°
2026-04-28 15:32 56.25266 -157.69749 8497 ft 107 kts 241°
2026-04-28 15:32 56.25081 -157.70566 8498 ft 107 kts 241°
2026-04-28 15:32 56.24709 -157.72213 8500 ft 107 kts 241°
2026-04-28 15:32 56.24430 -157.73447 8500 ft 107 kts 241°
2026-04-28 15:33 56.24149 -157.74683 8500 ft 107 kts 241°
2026-04-28 15:33 56.23868 -157.75917 8500 ft 107 kts 241°
2026-04-28 15:33 56.23582 -157.77166 8501 ft 107 kts 240°
2026-04-28 15:33 56.23283 -157.78381 8501 ft 106 kts 237°
2026-04-28 15:34 56.22943 -157.79552 8501 ft 106 kts 236°
2026-04-28 15:34 56.22592 -157.80707 8501 ft 105 kts 235°
2026-04-28 15:34 56.22234 -157.81854 8501 ft 105 kts 234°
2026-04-28 15:34 56.21874 -157.83001 8501 ft 105 kts 234°
2026-04-28 15:35 56.21513 -157.84144 8501 ft 105 kts 234°
2026-04-28 15:35 56.20788 -157.86429 8501 ft 105 kts 234°
2026-04-28 15:35 56.20426 -157.87570 8501 ft 105 kts 234°
2026-04-28 15:36 56.20063 -157.88712 8501 ft 105 kts 234°
2026-04-28 15:36 56.19700 -157.89852 8501 ft 105 kts 234°
2026-04-28 15:36 56.19337 -157.90994 8501 ft 105 kts 234°
2026-04-28 15:36 56.18968 -157.92150 8501 ft 105 kts 234°
2026-04-28 15:37 56.18605 -157.93291 8501 ft 105 kts 234°
2026-04-28 15:37 56.18241 -157.94432 8501 ft 105 kts 234°
2026-04-28 15:37 56.17878 -157.95571 8501 ft 105 kts 234°
2026-04-28 15:37 56.17637 -157.96326 8500 ft 105 kts 234°
2026-04-28 15:38 56.17151 -157.97851 8500 ft 106 kts 234°
2026-04-28 15:38 56.16786 -157.98993 8500 ft 106 kts 234°
2026-04-28 15:38 56.16422 -158.00132 8501 ft 106 kts 234°
2026-04-28 15:38 56.16064 -158.01255 8503 ft 102 kts 233°
2026-04-28 15:39 56.15716 -158.02341 8502 ft 99 kts 233°
2026-04-28 15:39 56.15374 -158.03403 8501 ft 98 kts 233°
2026-04-28 15:39 56.15038 -158.04448 8501 ft 97 kts 233°
2026-04-28 15:39 56.14704 -158.05485 8500 ft 96 kts 233°
2026-04-28 15:40 56.14368 -158.06531 8500 ft 95 kts 233°
2026-04-28 15:40 56.14038 -158.07558 8500 ft 95 kts 233°
2026-04-28 15:40 56.13709 -158.08583 8500 ft 95 kts 233°
2026-04-28 15:40 56.13381 -158.09606 8500 ft 95 kts 233°
2026-04-28 15:41 56.13053 -158.10627 8500 ft 95 kts 233°
2026-04-28 15:41 56.12725 -158.11647 8500 ft 95 kts 233°
2026-04-28 15:41 56.12398 -158.12667 8500 ft 95 kts 233°
2026-04-28 15:41 56.12070 -158.13687 8500 ft 95 kts 233°
2026-04-28 15:42 56.11853 -158.14361 8500 ft 95 kts 233°
2026-04-28 15:42 56.11525 -158.15381 8500 ft 95 kts 233°
2026-04-28 15:42 56.11197 -158.16400 8500 ft 95 kts 233°
2026-04-28 15:42 56.10865 -158.17432 8500 ft 95 kts 233°
2026-04-28 15:43 56.10538 -158.18449 8500 ft 95 kts 233°
2026-04-28 15:43 56.10210 -158.19468 8500 ft 95 kts 233°
2026-04-28 15:43 56.09882 -158.20485 8500 ft 94 kts 233°
2026-04-28 15:43 56.09553 -158.21503 8500 ft 94 kts 233°
2026-04-28 15:44 56.09225 -158.22522 8500 ft 94 kts 233°
2026-04-28 15:44 56.08897 -158.23539 8500 ft 94 kts 232°
2026-04-28 15:44 56.08568 -158.24556 8500 ft 95 kts 233°
2026-04-28 15:44 56.08240 -158.25574 8500 ft 95 kts 233°
2026-04-28 15:45 56.07911 -158.26591 8500 ft 95 kts 232°
2026-04-28 15:45 56.07582 -158.27610 8500 ft 95 kts 232°
2026-04-28 15:45 56.07253 -158.28628 8500 ft 95 kts 232°
2026-04-28 15:45 56.06920 -158.29656 8510 ft 94 kts 233°
2026-04-28 15:46 56.06593 -158.30668 8516 ft 94 kts 233°
2026-04-28 15:46 56.06265 -158.31681 8518 ft 95 kts 233°
2026-04-28 15:46 56.05934 -158.32701 8519 ft 95 kts 233°
2026-04-28 15:46 56.05604 -158.33722 8519 ft 95 kts 233°
2026-04-28 15:47 56.05272 -158.34745 8519 ft 95 kts 233°
2026-04-28 15:47 56.04940 -158.35770 8519 ft 95 kts 233°
2026-04-28 15:47 56.04607 -158.36796 8519 ft 95 kts 233°
2026-04-28 15:47 56.04274 -158.37824 8518 ft 96 kts 233°
2026-04-28 15:48 56.03940 -158.38852 8517 ft 96 kts 233°
2026-04-28 15:48 56.03607 -158.39879 8517 ft 96 kts 233°
2026-04-28 15:48 56.03274 -158.40904 8517 ft 96 kts 233°
2026-04-28 15:48 56.02940 -158.41930 8517 ft 96 kts 233°
2026-04-28 15:49 56.02606 -158.42957 8516 ft 96 kts 233°
2026-04-28 15:49 56.02267 -158.43998 8516 ft 96 kts 233°
2026-04-28 15:49 56.01933 -158.45026 8516 ft 96 kts 232°
2026-04-28 15:49 56.01598 -158.46053 8516 ft 96 kts 232°
2026-04-28 15:50 56.01264 -158.47078 8516 ft 96 kts 232°
2026-04-28 15:50 56.00928 -158.48107 8516 ft 96 kts 232°
2026-04-28 15:50 56.00594 -158.49134 8516 ft 96 kts 232°
2026-04-28 15:50 56.00258 -158.50162 8516 ft 96 kts 232°
2026-04-28 15:51 55.99923 -158.51188 8516 ft 96 kts 232°
2026-04-28 15:51 55.99589 -158.52214 8515 ft 95 kts 232°
2026-04-28 15:51 55.99255 -158.53235 8515 ft 95 kts 232°
2026-04-28 15:51 55.98921 -158.54256 8515 ft 95 kts 232°
2026-04-28 15:52 55.98588 -158.55274 8515 ft 95 kts 232°
2026-04-28 15:52 55.98256 -158.56290 8515 ft 95 kts 232°
2026-04-28 15:52 55.97922 -158.57309 8515 ft 95 kts 232°
2026-04-28 15:52 55.97585 -158.58339 8514 ft 95 kts 232°
2026-04-28 15:53 55.97252 -158.59356 8514 ft 95 kts 232°
2026-04-28 15:53 55.96919 -158.60373 8514 ft 95 kts 232°
2026-04-28 15:53 55.96584 -158.61393 8514 ft 95 kts 232°
2026-04-28 15:53 55.96251 -158.62408 8512 ft 95 kts 232°
2026-04-28 15:54 55.95916 -158.63431 8510 ft 95 kts 232°
2026-04-28 15:54 55.95581 -158.64451 8508 ft 95 kts 232°
2026-04-28 15:54 55.95247 -158.65469 8508 ft 95 kts 232°
2026-04-28 15:54 55.94912 -158.66488 8508 ft 95 kts 232°
2026-04-28 15:55 55.94578 -158.67507 8507 ft 95 kts 232°
2026-04-28 15:55 55.94242 -158.68527 8507 ft 95 kts 232°
2026-04-28 15:55 55.93907 -158.69546 8506 ft 95 kts 232°
2026-04-28 15:55 55.93572 -158.70565 8506 ft 95 kts 232°
2026-04-28 15:56 55.93232 -158.71598 8506 ft 95 kts 232°
2026-04-28 15:56 55.92896 -158.72617 8505 ft 95 kts 232°
2026-04-28 15:56 55.92560 -158.73638 8504 ft 96 kts 232°
2026-04-28 15:56 55.92222 -158.74662 8504 ft 96 kts 232°
2026-04-28 15:57 55.91884 -158.75688 8504 ft 96 kts 232°
2026-04-28 15:57 55.91545 -158.76716 8503 ft 96 kts 232°
2026-04-28 15:57 55.91206 -158.77744 8503 ft 96 kts 232°
2026-04-28 15:57 55.90867 -158.78772 8502 ft 97 kts 232°
2026-04-28 15:58 55.90527 -158.79803 8502 ft 97 kts 232°
2026-04-28 15:58 55.90186 -158.80833 8501 ft 97 kts 231°
2026-04-28 15:58 55.89846 -158.81863 8501 ft 97 kts 231°
2026-04-28 15:58 55.89505 -158.82895 8500 ft 97 kts 231°
2026-04-28 15:59 55.89163 -158.83928 8500 ft 97 kts 231°
2026-04-28 15:59 55.88817 -158.84972 8499 ft 97 kts 231°
2026-04-28 15:59 55.88479 -158.85994 8499 ft 97 kts 231°
2026-04-28 15:59 55.88137 -158.87026 8498 ft 97 kts 231°
2026-04-28 16:00 55.87790 -158.88074 8497 ft 97 kts 231°
2026-04-28 16:00 55.87445 -158.89114 8497 ft 98 kts 231°
2026-04-28 16:00 55.87101 -158.90153 8497 ft 98 kts 231°
2026-04-28 16:00 55.86755 -158.91195 8497 ft 98 kts 231°
2026-04-28 16:01 55.86409 -158.92237 8497 ft 98 kts 231°
2026-04-28 16:01 55.86064 -158.93279 8497 ft 98 kts 231°
2026-04-28 16:01 55.85717 -158.94323 8496 ft 98 kts 231°
2026-04-28 16:01 55.85370 -158.95366 8496 ft 98 kts 231°
2026-04-28 16:02 55.85022 -158.96411 8495 ft 98 kts 231°
2026-04-28 16:02 55.84675 -158.97456 8494 ft 98 kts 231°
2026-04-28 16:02 55.84327 -158.98502 8494 ft 98 kts 231°
2026-04-28 16:02 55.83978 -158.99549 8493 ft 98 kts 231°
2026-04-28 16:03 55.83625 -159.00608 8493 ft 98 kts 231°
2026-04-28 16:03 55.83281 -159.01643 8492 ft 99 kts 231°
2026-04-28 16:03 55.82931 -159.02690 8492 ft 99 kts 231°
2026-04-28 16:03 55.82577 -159.03751 8491 ft 99 kts 231°
2026-04-28 16:04 55.82227 -159.04801 8491 ft 99 kts 231°
2026-04-28 16:04 55.81878 -159.05848 8490 ft 99 kts 231°
2026-04-28 16:04 55.81527 -159.06897 8490 ft 99 kts 231°
2026-04-28 16:04 55.81177 -159.07946 8489 ft 99 kts 231°
2026-04-28 16:05 55.80826 -159.08996 8489 ft 99 kts 231°
2026-04-28 16:05 55.80475 -159.10047 8488 ft 99 kts 231°
2026-04-28 16:05 55.80123 -159.11098 8488 ft 99 kts 230°
2026-04-28 16:05 55.79771 -159.12148 8487 ft 99 kts 230°
2026-04-28 16:06 55.79419 -159.13200 8486 ft 99 kts 230°
2026-04-28 16:06 55.79067 -159.14252 8486 ft 99 kts 230°
2026-04-28 16:06 55.78714 -159.15305 8486 ft 99 kts 230°
2026-04-28 16:06 55.78361 -159.16357 8485 ft 99 kts 230°
2026-04-28 16:07 55.78007 -159.17411 8484 ft 99 kts 230°
2026-04-28 16:07 55.77649 -159.18480 8484 ft 99 kts 230°
2026-04-28 16:07 55.76941 -159.20587 8483 ft 100 kts 230°
2026-04-28 16:08 55.76587 -159.21641 8482 ft 100 kts 230°
2026-04-28 16:08 55.76232 -159.22697 8481 ft 100 kts 230°
2026-04-28 16:08 55.75876 -159.23755 8480 ft 100 kts 230°
2026-04-28 16:09 55.75167 -159.25863 8479 ft 100 kts 230°
2026-04-28 16:09 55.74812 -159.26917 8479 ft 99 kts 230°
2026-04-28 16:09 55.74458 -159.27969 8479 ft 99 kts 230°
2026-04-28 16:10 55.73748 -159.30073 8478 ft 100 kts 230°
2026-04-28 16:10 55.73388 -159.31141 8478 ft 100 kts 230°
2026-04-28 16:10 55.72673 -159.33259 8478 ft 101 kts 230°
2026-04-28 16:11 55.71954 -159.35388 8477 ft 101 kts 230°
2026-04-28 16:11 55.71231 -159.37528 8476 ft 101 kts 230°
2026-04-28 16:12 55.70505 -159.39674 8475 ft 102 kts 230°
2026-04-28 16:12 55.70142 -159.40745 8475 ft 102 kts 230°
2026-04-28 16:13 55.69414 -159.42895 8474 ft 102 kts 230°
2026-04-28 16:13 55.69049 -159.43969 8474 ft 102 kts 230°
2026-04-28 16:13 55.68315 -159.46133 8473 ft 102 kts 230°
2026-04-28 16:14 55.67584 -159.48285 8473 ft 102 kts 229°
2026-04-28 16:14 55.66852 -159.50440 8472 ft 102 kts 229°
2026-04-28 16:15 55.66119 -159.52594 8471 ft 102 kts 229°
2026-04-28 16:15 55.65752 -159.53671 8471 ft 102 kts 229°
2026-04-28 16:15 55.65384 -159.54749 8471 ft 102 kts 229°
2026-04-28 16:16 55.64650 -159.56903 8470 ft 102 kts 229°
2026-04-28 16:16 55.64283 -159.57981 8470 ft 103 kts 229°
2026-04-28 16:17 55.63541 -159.60154 8470 ft 103 kts 229°
2026-04-28 16:17 55.63173 -159.61231 8470 ft 103 kts 229°
2026-04-28 16:17 55.62804 -159.62311 8470 ft 103 kts 229°
2026-04-28 16:17 55.62435 -159.63389 8470 ft 103 kts 229°
2026-04-28 16:18 55.62066 -159.64469 8469 ft 103 kts 229°
2026-04-28 16:18 55.61697 -159.65547 8469 ft 103 kts 229°
2026-04-28 16:18 55.61328 -159.66624 8469 ft 103 kts 229°
2026-04-28 16:18 55.60959 -159.67703 8469 ft 103 kts 229°
2026-04-28 16:19 55.60588 -159.68784 8469 ft 103 kts 229°
2026-04-28 16:19 55.60215 -159.69873 8469 ft 103 kts 229°
2026-04-28 16:19 55.59848 -159.70944 8490 ft 101 kts 229°
2026-04-28 16:19 55.59482 -159.72007 8497 ft 101 kts 229°
2026-04-28 16:20 55.59116 -159.73071 8499 ft 102 kts 229°
2026-04-28 16:20 55.58749 -159.74140 8501 ft 102 kts 229°
2026-04-28 16:20 55.58381 -159.75211 8501 ft 102 kts 229°
2026-04-28 16:20 55.58012 -159.76286 8501 ft 103 kts 229°
2026-04-28 16:21 55.57643 -159.77361 8501 ft 103 kts 229°
2026-04-28 16:21 55.57272 -159.78438 8501 ft 103 kts 229°
2026-04-28 16:21 55.56901 -159.79516 8501 ft 103 kts 229°
2026-04-28 16:21 55.56531 -159.80593 8501 ft 103 kts 229°
2026-04-28 16:22 55.56160 -159.81668 8501 ft 103 kts 229°
2026-04-28 16:22 55.55788 -159.82748 8501 ft 103 kts 229°
2026-04-28 16:22 55.55417 -159.83824 8501 ft 103 kts 229°
2026-04-28 16:22 55.55041 -159.84915 8501 ft 103 kts 229°
2026-04-28 16:23 55.54669 -159.85991 8501 ft 103 kts 229°
2026-04-28 16:23 55.54298 -159.87067 8501 ft 103 kts 229°
2026-04-28 16:23 55.53926 -159.88145 8501 ft 103 kts 229°
2026-04-28 16:23 55.53554 -159.89221 8501 ft 103 kts 229°
2026-04-28 16:24 55.53182 -159.90297 8501 ft 103 kts 229°
2026-04-28 16:24 55.52810 -159.91373 8501 ft 103 kts 229°
2026-04-28 16:24 55.52437 -159.92448 8501 ft 103 kts 229°
2026-04-28 16:24 55.52065 -159.93523 8502 ft 103 kts 229°
2026-04-28 16:25 55.51693 -159.94598 8502 ft 103 kts 229°
2026-04-28 16:25 55.51320 -159.95673 8502 ft 103 kts 229°
2026-04-28 16:25 55.50948 -159.96747 8502 ft 103 kts 229°
2026-04-28 16:25 55.50577 -159.97818 8502 ft 103 kts 229°
2026-04-28 16:26 55.50204 -159.98893 8503 ft 103 kts 229°
2026-04-28 16:26 55.49826 -159.99982 8503 ft 103 kts 229°
2026-04-28 16:26 55.49454 -160.01053 8504 ft 102 kts 228°
2026-04-28 16:26 55.49082 -160.02122 8504 ft 102 kts 229°
2026-04-28 16:27 55.48712 -160.03187 8504 ft 102 kts 229°
2026-04-28 16:27 55.48342 -160.04250 8504 ft 102 kts 229°
2026-04-28 16:27 55.47601 -160.06377 8504 ft 102 kts 228°
2026-04-28 16:28 55.47232 -160.07438 8505 ft 102 kts 228°
2026-04-28 16:28 55.46982 -160.08154 8505 ft 102 kts 228°
2026-04-28 16:28 55.46492 -160.09559 8505 ft 102 kts 228°
2026-04-28 16:28 55.46123 -160.10620 8505 ft 102 kts 228°
2026-04-28 16:29 55.45379 -160.12752 8506 ft 102 kts 228°
2026-04-28 16:29 55.44639 -160.14871 8506 ft 102 kts 228°
2026-04-28 16:30 55.44268 -160.15930 8507 ft 102 kts 229°
2026-04-28 16:30 55.43899 -160.16985 8507 ft 101 kts 229°
2026-04-28 16:30 55.43529 -160.18043 8507 ft 101 kts 229°
2026-04-28 16:30 55.43160 -160.19098 8508 ft 101 kts 229°
2026-04-28 16:31 55.42791 -160.20153 8508 ft 101 kts 229°
2026-04-28 16:31 55.42421 -160.21208 8508 ft 101 kts 229°
2026-04-28 16:31 55.42052 -160.22261 8508 ft 101 kts 229°
2026-04-28 16:31 55.41683 -160.23315 8509 ft 101 kts 229°
2026-04-28 16:32 55.41313 -160.24368 8509 ft 101 kts 229°
2026-04-28 16:32 55.40568 -160.26490 8509 ft 101 kts 229°
2026-04-28 16:32 55.40199 -160.27541 8510 ft 101 kts 229°
2026-04-28 16:33 55.39830 -160.28593 8510 ft 101 kts 229°
2026-04-28 16:33 55.39710 -160.28933 8510 ft 101 kts 229°
2026-04-28 16:33 55.39091 -160.30693 8510 ft 101 kts 229°
2026-04-28 16:33 55.38722 -160.31742 8510 ft 101 kts 228°
2026-04-28 16:34 55.38354 -160.32787 8511 ft 101 kts 228°
2026-04-28 16:34 55.37986 -160.33831 8512 ft 100 kts 228°
2026-04-28 16:34 55.37619 -160.34871 8512 ft 100 kts 228°
2026-04-28 16:34 55.37252 -160.35911 8511 ft 100 kts 228°
2026-04-28 16:35 55.36886 -160.36948 8511 ft 100 kts 228°
2026-04-28 16:35 55.36519 -160.37987 8511 ft 100 kts 228°
2026-04-28 16:35 55.36153 -160.39023 8511 ft 100 kts 228°
2026-04-28 16:35 55.35787 -160.40058 8512 ft 100 kts 229°
2026-04-28 16:36 55.35540 -160.40758 8512 ft 100 kts 229°
2026-04-28 16:36 55.35174 -160.41791 8512 ft 100 kts 228°
2026-04-28 16:36 55.34809 -160.42823 8512 ft 100 kts 228°
2026-04-28 16:36 55.34443 -160.43856 8512 ft 100 kts 228°
2026-04-28 16:37 55.34077 -160.44888 8512 ft 100 kts 228°
2026-04-28 16:37 55.33711 -160.45917 8512 ft 100 kts 228°
2026-04-28 16:37 55.33345 -160.46946 8512 ft 99 kts 229°
2026-04-28 16:38 55.32612 -160.49001 8513 ft 99 kts 228°
2026-04-28 16:38 55.32241 -160.50033 8513 ft 99 kts 228°
2026-04-28 16:38 55.31872 -160.51044 8513 ft 98 kts 227°
2026-04-28 16:38 55.31550 -160.52122 8512 ft 102 kts 236°
2026-04-28 16:39 55.31287 -160.53279 8512 ft 102 kts 237°
2026-04-28 16:39 55.31025 -160.54432 8512 ft 102 kts 237°
2026-04-28 16:39 55.30761 -160.55586 8512 ft 102 kts 237°
2026-04-28 16:39 55.30497 -160.56736 8512 ft 102 kts 237°
2026-04-28 16:40 55.30233 -160.57884 8512 ft 102 kts 237°
2026-04-28 16:40 55.29968 -160.59034 8512 ft 102 kts 237°
2026-04-28 16:40 55.29704 -160.60179 8512 ft 102 kts 237°
2026-04-28 16:40 55.29439 -160.61326 8512 ft 102 kts 237°
2026-04-28 16:41 55.29174 -160.62473 8511 ft 102 kts 237°
2026-04-28 16:41 55.28910 -160.63619 8511 ft 102 kts 237°
2026-04-28 16:41 55.28641 -160.64781 8511 ft 102 kts 237°
2026-04-28 16:41 55.28376 -160.65927 8510 ft 102 kts 237°
2026-04-28 16:42 55.28112 -160.67072 8510 ft 102 kts 237°
2026-04-28 16:42 55.27847 -160.68217 8509 ft 102 kts 237°
2026-04-28 16:42 55.27581 -160.69363 8509 ft 102 kts 237°
2026-04-28 16:42 55.27316 -160.70508 8509 ft 101 kts 237°
2026-04-28 16:43 55.27051 -160.71651 8508 ft 101 kts 237°
2026-04-28 16:43 55.26786 -160.72794 8508 ft 101 kts 237°
2026-04-28 16:43 55.26520 -160.73938 8507 ft 101 kts 236°
2026-04-28 16:43 55.26256 -160.75077 8506 ft 101 kts 236°
2026-04-28 16:44 55.25992 -160.76213 8506 ft 101 kts 236°
2026-04-28 16:44 55.25728 -160.77347 8505 ft 101 kts 236°
2026-04-28 16:44 55.25464 -160.78481 8505 ft 101 kts 236°
2026-04-28 16:44 55.25197 -160.79627 8504 ft 101 kts 236°
2026-04-28 16:45 55.24933 -160.80759 8503 ft 100 kts 236°
2026-04-28 16:45 55.24669 -160.81891 8503 ft 100 kts 236°
2026-04-28 16:45 55.24405 -160.83025 8502 ft 101 kts 236°
2026-04-28 16:45 55.24142 -160.84156 8501 ft 100 kts 236°
2026-04-28 16:46 55.23878 -160.85286 8500 ft 100 kts 236°
2026-04-28 16:46 55.23613 -160.86421 8495 ft 101 kts 236°
2026-04-28 16:46 55.23348 -160.87557 8492 ft 101 kts 236°
2026-04-28 16:46 55.23083 -160.88691 8490 ft 101 kts 236°
2026-04-28 16:47 55.22818 -160.89825 8489 ft 101 kts 236°
2026-04-28 16:47 55.22553 -160.90958 8488 ft 101 kts 236°
2026-04-28 16:47 55.22288 -160.92087 8487 ft 100 kts 236°
2026-04-28 16:47 55.22024 -160.93215 8494 ft 100 kts 236°
2026-04-28 16:48 55.21758 -160.94348 8498 ft 99 kts 236°
2026-04-28 16:48 55.21495 -160.95469 8498 ft 100 kts 236°
2026-04-28 16:48 55.21232 -160.96588 8498 ft 100 kts 236°
2026-04-28 16:48 55.20969 -160.97711 8497 ft 100 kts 236°
2026-04-28 16:49 55.20705 -160.98836 8496 ft 100 kts 236°
2026-04-28 16:49 55.20441 -160.99958 8496 ft 100 kts 236°
2026-04-28 16:49 55.20177 -161.01082 8495 ft 100 kts 236°
2026-04-28 16:49 55.19913 -161.02206 8494 ft 100 kts 236°
2026-04-28 16:50 55.19648 -161.03331 8493 ft 100 kts 236°
2026-04-28 16:50 55.19383 -161.04456 8492 ft 100 kts 236°
2026-04-28 16:50 55.19119 -161.05580 8491 ft 100 kts 236°
2026-04-28 16:50 55.18853 -161.06706 8490 ft 100 kts 236°
2026-04-28 16:51 55.18589 -161.07830 8489 ft 100 kts 236°
2026-04-28 16:51 55.18320 -161.08968 8489 ft 100 kts 236°
2026-04-28 16:51 55.18058 -161.10078 8488 ft 100 kts 236°
2026-04-28 16:51 55.17790 -161.11215 8487 ft 100 kts 236°
2026-04-28 16:52 55.17524 -161.12338 8486 ft 100 kts 236°
2026-04-28 16:52 55.17258 -161.13463 8485 ft 100 kts 236°
2026-04-28 16:52 55.16993 -161.14586 8484 ft 100 kts 236°
2026-04-28 16:52 55.16727 -161.15709 8483 ft 100 kts 236°
2026-04-28 16:53 55.16462 -161.16831 8482 ft 100 kts 236°
2026-04-28 16:53 55.16195 -161.17953 8473 ft 100 kts 236°
2026-04-28 16:53 55.15929 -161.19077 8468 ft 100 kts 236°
2026-04-28 16:53 55.15663 -161.20199 8466 ft 100 kts 236°
2026-04-28 16:54 55.15398 -161.21317 8465 ft 100 kts 236°
2026-04-28 16:54 55.15132 -161.22436 8463 ft 100 kts 236°
2026-04-28 16:54 55.14867 -161.23552 8462 ft 100 kts 236°
2026-04-28 16:54 55.14688 -161.24304 8461 ft 100 kts 236°
2026-04-28 16:55 55.14333 -161.25796 8459 ft 99 kts 236°
2026-04-28 16:55 55.14068 -161.26910 8457 ft 99 kts 236°
2026-04-28 16:55 55.13802 -161.28026 8456 ft 99 kts 236°
2026-04-28 16:55 55.13538 -161.29138 8454 ft 99 kts 236°
2026-04-28 16:56 55.13272 -161.30252 8453 ft 99 kts 236°
2026-04-28 16:56 55.13007 -161.31364 8452 ft 99 kts 236°
2026-04-28 16:56 55.12741 -161.32478 8450 ft 99 kts 236°
2026-04-28 16:56 55.12476 -161.33589 8449 ft 99 kts 236°
2026-04-28 16:57 55.12210 -161.34704 8448 ft 99 kts 236°
2026-04-28 16:57 55.11945 -161.35814 8449 ft 99 kts 236°
2026-04-28 16:57 55.11681 -161.36919 8462 ft 98 kts 236°
2026-04-28 16:57 55.11417 -161.38017 8464 ft 98 kts 236°
2026-04-28 16:58 55.11150 -161.39133 8463 ft 99 kts 236°
2026-04-28 16:58 55.10882 -161.40249 8438 ft 101 kts 236°
2026-04-28 16:58 55.10614 -161.41377 8430 ft 101 kts 236°
2026-04-28 16:58 55.10345 -161.42504 8427 ft 100 kts 236°
2026-04-28 16:59 55.10077 -161.43624 8426 ft 100 kts 236°
2026-04-28 16:59 55.09810 -161.44739 8426 ft 100 kts 236°
2026-04-28 16:59 55.09542 -161.45852 8426 ft 99 kts 236°
2026-04-28 16:59 55.09275 -161.46963 8425 ft 99 kts 236°
2026-04-28 17:00 55.09008 -161.48073 8425 ft 99 kts 236°
2026-04-28 17:00 55.08741 -161.49181 8425 ft 99 kts 236°
2026-04-28 17:00 55.08475 -161.50291 8425 ft 99 kts 236°
2026-04-28 17:00 55.08209 -161.51394 8431 ft 99 kts 236°
2026-04-28 17:01 55.07944 -161.52495 8433 ft 99 kts 236°
2026-04-28 17:01 55.07677 -161.53599 8434 ft 99 kts 236°
2026-04-28 17:01 55.07408 -161.54718 8434 ft 99 kts 236°
2026-04-28 17:01 55.07141 -161.55824 8434 ft 99 kts 236°
2026-04-28 17:02 55.06875 -161.56928 8434 ft 99 kts 236°
2026-04-28 17:02 55.06699 -161.57660 8434 ft 99 kts 236°
2026-04-28 17:02 55.06342 -161.59137 8434 ft 99 kts 236°
2026-04-28 17:02 55.06074 -161.60245 8434 ft 99 kts 236°
2026-04-28 17:03 55.05540 -161.62456 8434 ft 99 kts 236°
2026-04-28 17:03 55.05273 -161.63559 8434 ft 99 kts 236°
2026-04-28 17:03 55.05005 -161.64665 8434 ft 99 kts 236°
2026-04-28 17:04 55.04467 -161.66888 8434 ft 99 kts 235°
2026-04-28 17:04 55.04199 -161.67994 8434 ft 99 kts 235°
2026-04-28 17:05 55.03663 -161.70201 8434 ft 99 kts 235°
2026-04-28 17:05 55.03395 -161.71307 8434 ft 99 kts 235°
2026-04-28 17:05 55.03127 -161.72410 8434 ft 99 kts 235°
2026-04-28 17:06 55.02590 -161.74618 8435 ft 99 kts 235°
2026-04-28 17:06 55.02322 -161.75719 8435 ft 99 kts 235°
2026-04-28 17:06 55.01785 -161.77925 8435 ft 99 kts 235°
2026-04-28 17:07 55.01516 -161.79028 8435 ft 99 kts 235°
2026-04-28 17:07 55.01247 -161.80131 8435 ft 99 kts 235°
2026-04-28 17:07 55.00978 -161.81234 8435 ft 99 kts 235°
2026-04-28 17:07 55.00709 -161.82337 8435 ft 99 kts 235°
2026-04-28 17:08 55.00437 -161.83453 8435 ft 99 kts 235°
2026-04-28 17:08 55.00168 -161.84555 8435 ft 99 kts 235°
2026-04-28 17:08 54.99898 -161.85657 8435 ft 99 kts 235°
2026-04-28 17:08 54.99629 -161.86759 8435 ft 99 kts 235°
2026-04-28 17:09 54.99360 -161.87860 8435 ft 99 kts 235°
2026-04-28 17:09 54.99090 -161.88962 8435 ft 99 kts 235°
2026-04-28 17:09 54.98820 -161.90063 8435 ft 99 kts 235°
2026-04-28 17:09 54.98550 -161.91164 8436 ft 99 kts 235°
2026-04-28 17:10 54.98280 -161.92266 8436 ft 99 kts 235°
2026-04-28 17:10 54.98010 -161.93367 8436 ft 99 kts 235°
2026-04-28 17:10 54.97740 -161.94467 8435 ft 99 kts 235°
2026-04-28 17:10 54.97470 -161.95569 8435 ft 99 kts 235°
2026-04-28 17:11 54.97200 -161.96667 8435 ft 99 kts 235°
2026-04-28 17:11 54.96929 -161.97768 8436 ft 99 kts 235°
2026-04-28 17:11 54.96655 -161.98883 8436 ft 99 kts 235°
2026-04-28 17:11 54.96385 -161.99982 8436 ft 99 kts 235°
2026-04-28 17:12 54.96115 -162.01077 8436 ft 98 kts 236°
2026-04-28 17:12 54.95847 -162.02162 8436 ft 97 kts 236°
2026-04-28 17:12 54.95581 -162.03239 8436 ft 97 kts 236°
2026-04-28 17:12 54.95316 -162.04313 8436 ft 97 kts 236°
2026-04-28 17:13 54.95051 -162.05383 8435 ft 96 kts 236°
2026-04-28 17:13 54.94787 -162.06452 8435 ft 96 kts 236°
2026-04-28 17:13 54.94523 -162.07520 8435 ft 96 kts 236°
2026-04-28 17:13 54.94259 -162.08589 8435 ft 96 kts 236°
2026-04-28 17:14 54.93995 -162.09657 8435 ft 96 kts 236°
2026-04-28 17:14 54.93731 -162.10723 8435 ft 96 kts 236°
2026-04-28 17:14 54.93467 -162.11789 8435 ft 96 kts 236°
2026-04-28 17:14 54.93200 -162.12868 8435 ft 96 kts 236°
2026-04-28 17:15 54.92936 -162.13935 8435 ft 96 kts 236°
2026-04-28 17:15 54.92672 -162.15001 8435 ft 96 kts 236°
2026-04-28 17:15 54.92408 -162.16067 8435 ft 96 kts 236°
2026-04-28 17:15 54.92144 -162.17131 8435 ft 96 kts 236°
2026-04-28 17:16 54.91880 -162.18197 8435 ft 96 kts 236°
2026-04-28 17:16 54.91615 -162.19262 8435 ft 96 kts 236°
2026-04-28 17:16 54.91351 -162.20325 8435 ft 96 kts 236°
2026-04-28 17:16 54.91086 -162.21392 8435 ft 96 kts 236°
2026-04-28 17:17 54.90822 -162.22455 8435 ft 96 kts 236°
2026-04-28 17:17 54.90557 -162.23520 8435 ft 96 kts 236°
2026-04-28 17:17 54.90293 -162.24584 8435 ft 96 kts 236°
2026-04-28 17:17 54.90024 -162.25662 8435 ft 96 kts 236°
2026-04-28 17:18 54.89759 -162.26727 8435 ft 96 kts 236°
2026-04-28 17:18 54.89493 -162.27795 8421 ft 97 kts 236°
2026-04-28 17:18 54.89225 -162.28873 8415 ft 97 kts 236°
2026-04-28 17:18 54.88957 -162.29948 8412 ft 97 kts 236°
2026-04-28 17:19 54.88690 -162.31020 8411 ft 97 kts 236°
2026-04-28 17:19 54.88423 -162.32088 8410 ft 97 kts 236°
2026-04-28 17:19 54.88156 -162.33157 8409 ft 96 kts 236°
2026-04-28 17:19 54.87889 -162.34224 8408 ft 96 kts 236°
2026-04-28 17:20 54.87623 -162.35286 8407 ft 96 kts 236°
2026-04-28 17:20 54.87444 -162.36004 8407 ft 96 kts 236°
2026-04-28 17:20 54.87091 -162.37412 8406 ft 96 kts 236°
2026-04-28 17:20 54.86825 -162.38473 8405 ft 96 kts 236°
2026-04-28 17:21 54.86560 -162.39534 8404 ft 96 kts 236°
2026-04-28 17:21 54.86294 -162.40593 8403 ft 96 kts 236°
2026-04-28 17:21 54.86024 -162.41669 8402 ft 96 kts 236°
2026-04-28 17:22 54.85492 -162.43790 8401 ft 96 kts 236°
2026-04-28 17:22 54.85227 -162.44847 8400 ft 96 kts 236°
2026-04-28 17:22 54.84960 -162.45907 8399 ft 96 kts 236°
2026-04-28 17:23 54.84427 -162.48028 8398 ft 96 kts 236°
2026-04-28 17:23 54.84161 -162.49085 8397 ft 96 kts 236°
2026-04-28 17:23 54.83895 -162.50144 8396 ft 96 kts 236°
2026-04-28 17:23 54.83628 -162.51202 8396 ft 96 kts 236°
2026-04-28 17:24 54.83361 -162.52261 8395 ft 96 kts 236°
2026-04-28 17:24 54.83095 -162.53319 8394 ft 96 kts 236°
2026-04-28 17:24 54.82824 -162.54394 8394 ft 96 kts 236°
2026-04-28 17:24 54.82560 -162.55441 8393 ft 96 kts 236°
2026-04-28 17:25 54.82289 -162.56515 8392 ft 96 kts 236°
2026-04-28 17:25 54.81753 -162.58636 8391 ft 96 kts 236°
2026-04-28 17:25 54.81485 -162.59696 8390 ft 96 kts 236°
2026-04-28 17:26 54.81216 -162.60758 8390 ft 96 kts 236°
2026-04-28 17:26 54.80949 -162.61816 8389 ft 96 kts 236°
2026-04-28 17:26 54.80680 -162.62878 8388 ft 96 kts 236°
2026-04-28 17:26 54.80412 -162.63937 8388 ft 96 kts 236°
2026-04-28 17:27 54.80143 -162.64997 8388 ft 96 kts 236°
2026-04-28 17:27 54.79874 -162.66057 8387 ft 96 kts 236°
2026-04-28 17:27 54.79605 -162.67117 8386 ft 96 kts 236°
2026-04-28 17:27 54.79336 -162.68176 8386 ft 96 kts 236°
2026-04-28 17:28 54.79064 -162.69250 8386 ft 96 kts 236°
2026-04-28 17:28 54.78526 -162.71367 8385 ft 96 kts 236°
2026-04-28 17:28 54.78256 -162.72427 8372 ft 97 kts 236°
2026-04-28 17:29 54.77982 -162.73508 8346 ft 99 kts 236°
2026-04-28 17:29 54.77800 -162.74228 8340 ft 98 kts 236°
2026-04-28 17:29 54.77433 -162.75672 8336 ft 98 kts 236°
2026-04-28 17:30 54.76888 -162.77806 8334 ft 97 kts 236°
2026-04-28 17:30 54.76346 -162.79928 8334 ft 96 kts 235°
2026-04-28 17:30 54.76163 -162.80644 8339 ft 96 kts 235°
2026-04-28 17:31 54.75894 -162.81695 8342 ft 96 kts 235°
2026-04-28 17:31 54.75355 -162.83801 8343 ft 96 kts 235°
2026-04-28 17:32 54.74816 -162.85909 8343 ft 96 kts 235°
2026-04-28 17:32 54.74546 -162.86964 8343 ft 96 kts 235°
2026-04-28 17:32 54.74275 -162.88021 8343 ft 96 kts 235°
2026-04-28 17:32 54.74005 -162.89074 8343 ft 96 kts 235°
2026-04-28 17:33 54.73731 -162.90144 8343 ft 96 kts 235°
2026-04-28 17:33 54.73464 -162.91185 8343 ft 96 kts 235°
2026-04-28 17:33 54.73193 -162.92241 8343 ft 96 kts 235°
2026-04-28 17:33 54.73010 -162.92952 8343 ft 96 kts 235°
2026-04-28 17:34 54.72648 -162.94362 8343 ft 96 kts 235°
2026-04-28 17:34 54.72376 -162.95417 8344 ft 96 kts 235°
2026-04-28 17:34 54.72105 -162.96470 8343 ft 96 kts 235°
2026-04-28 17:34 54.71834 -162.97524 8343 ft 96 kts 235°
2026-04-28 17:35 54.71562 -162.98576 8343 ft 96 kts 235°
2026-04-28 17:35 54.71290 -162.99631 8343 ft 96 kts 235°
2026-04-28 17:35 54.71017 -163.00688 8343 ft 96 kts 235°
2026-04-28 17:35 54.70745 -163.01742 8343 ft 96 kts 235°
2026-04-28 17:36 54.70472 -163.02796 8343 ft 96 kts 235°
2026-04-28 17:36 54.70198 -163.03853 8343 ft 96 kts 235°
2026-04-28 17:36 54.69925 -163.04907 8343 ft 96 kts 235°
2026-04-28 17:36 54.69646 -163.05977 8343 ft 96 kts 235°
2026-04-28 17:37 54.69371 -163.07030 8342 ft 96 kts 235°
2026-04-28 17:37 54.69095 -163.08082 8342 ft 96 kts 234°
2026-04-28 17:37 54.68818 -163.09131 8342 ft 96 kts 234°
2026-04-28 17:37 54.68535 -163.10176 8342 ft 96 kts 234°
2026-04-28 17:38 54.68285 -163.11258 8342 ft 98 kts 240°
2026-04-28 17:38 54.68070 -163.12381 8341 ft 98 kts 239°
2026-04-28 17:38 54.67849 -163.13494 8341 ft 98 kts 239°
2026-04-28 17:38 54.67624 -163.14604 8342 ft 98 kts 239°
2026-04-28 17:39 54.67397 -163.15712 8341 ft 98 kts 239°
2026-04-28 17:39 54.67170 -163.16818 8341 ft 98 kts 239°
2026-04-28 17:39 54.66710 -163.19047 8341 ft 98 kts 239°
2026-04-28 17:40 54.66481 -163.20153 8341 ft 98 kts 239°
2026-04-28 17:40 54.66252 -163.21260 8341 ft 98 kts 239°
2026-04-28 17:40 54.66024 -163.22366 8341 ft 98 kts 239°
2026-04-28 17:40 54.65795 -163.23471 8341 ft 98 kts 239°
2026-04-28 17:41 54.65566 -163.24578 8341 ft 98 kts 239°
2026-04-28 17:41 54.65337 -163.25683 8341 ft 98 kts 238°
2026-04-28 17:41 54.65108 -163.26788 8340 ft 98 kts 239°
2026-04-28 17:41 54.64878 -163.27894 8340 ft 98 kts 238°
2026-04-28 17:42 54.64648 -163.29001 8340 ft 98 kts 238°
2026-04-28 17:42 54.64419 -163.30108 8340 ft 98 kts 238°
2026-04-28 17:42 54.64189 -163.31215 8340 ft 98 kts 238°
2026-04-28 17:42 54.63958 -163.32325 8340 ft 98 kts 238°
2026-04-28 17:43 54.63727 -163.33434 8339 ft 98 kts 238°
2026-04-28 17:43 54.63497 -163.34541 8339 ft 98 kts 238°
2026-04-28 17:43 54.63263 -163.35664 8339 ft 98 kts 238°
2026-04-28 17:43 54.63032 -163.36771 8339 ft 98 kts 238°
2026-04-28 17:44 54.62801 -163.37881 8339 ft 98 kts 238°
2026-04-28 17:44 54.62570 -163.38989 8339 ft 98 kts 238°
2026-04-28 17:44 54.62339 -163.40098 8338 ft 98 kts 238°
2026-04-28 17:44 54.62108 -163.41204 8338 ft 98 kts 238°
2026-04-28 17:45 54.61876 -163.42314 8338 ft 98 kts 238°
2026-04-28 17:45 54.61644 -163.43421 8338 ft 98 kts 238°
2026-04-28 17:45 54.61412 -163.44529 8338 ft 98 kts 238°
2026-04-28 17:45 54.61181 -163.45636 8337 ft 98 kts 238°
2026-04-28 17:46 54.60949 -163.46741 8337 ft 98 kts 238°
2026-04-28 17:46 54.60717 -163.47850 8337 ft 98 kts 238°
2026-04-28 17:46 54.60484 -163.48959 8337 ft 98 kts 238°
2026-04-28 17:46 54.60253 -163.50064 8337 ft 98 kts 238°
2026-04-28 17:47 54.60020 -163.51171 8337 ft 98 kts 238°
2026-04-28 17:47 54.59788 -163.52278 8336 ft 98 kts 238°
2026-04-28 17:47 54.59552 -163.53400 8336 ft 98 kts 238°
2026-04-28 17:47 54.59399 -163.54131 8336 ft 98 kts 238°
2026-04-28 17:48 54.59087 -163.55611 8336 ft 98 kts 238°
2026-04-28 17:48 54.58855 -163.56715 8336 ft 98 kts 238°
2026-04-28 17:48 54.58622 -163.57823 8335 ft 98 kts 238°
2026-04-28 17:48 54.58389 -163.58928 8335 ft 98 kts 238°
2026-04-28 17:49 54.58155 -163.60037 8335 ft 99 kts 238°
2026-04-28 17:49 54.57922 -163.61145 8335 ft 99 kts 238°
2026-04-28 17:49 54.57688 -163.62253 8334 ft 99 kts 238°
2026-04-28 17:49 54.57454 -163.63362 8334 ft 99 kts 238°
2026-04-28 17:50 54.57220 -163.64470 8334 ft 99 kts 238°
2026-04-28 17:50 54.56985 -163.65581 8334 ft 99 kts 238°
2026-04-28 17:50 54.56748 -163.66703 8333 ft 99 kts 238°
2026-04-28 17:50 54.56513 -163.67812 8333 ft 99 kts 238°
2026-04-28 17:51 54.56279 -163.68919 8333 ft 99 kts 238°
2026-04-28 17:51 54.56044 -163.70027 8333 ft 99 kts 238°
2026-04-28 17:51 54.55809 -163.71137 8333 ft 99 kts 238°
2026-04-28 17:51 54.55574 -163.72244 8332 ft 99 kts 238°
2026-04-28 17:52 54.55339 -163.73352 8332 ft 99 kts 238°
2026-04-28 17:52 54.55104 -163.74460 8332 ft 99 kts 238°
2026-04-28 17:52 54.54633 -163.76675 8331 ft 99 kts 238°
2026-04-28 17:53 54.54397 -163.77782 8331 ft 99 kts 238°
2026-04-28 17:53 54.54162 -163.78889 8331 ft 99 kts 238°
2026-04-28 17:53 54.53926 -163.79997 8330 ft 99 kts 238°
2026-04-28 17:53 54.53690 -163.81103 8330 ft 99 kts 238°
2026-04-28 17:54 54.53454 -163.82212 8330 ft 99 kts 238°
2026-04-28 17:54 54.53215 -163.83333 8330 ft 99 kts 238°
2026-04-28 17:54 54.52979 -163.84439 8329 ft 99 kts 238°
2026-04-28 17:54 54.52743 -163.85547 8329 ft 99 kts 238°
2026-04-28 17:55 54.52507 -163.86652 8329 ft 99 kts 238°
2026-04-28 17:55 54.52270 -163.87757 8328 ft 99 kts 238°
2026-04-28 17:55 54.52034 -163.88863 8328 ft 99 kts 238°
2026-04-28 17:55 54.51797 -163.89970 8328 ft 99 kts 238°
2026-04-28 17:56 54.51561 -163.91075 8327 ft 99 kts 238°
2026-04-28 17:56 54.51324 -163.92181 8327 ft 99 kts 238°
2026-04-28 17:56 54.51087 -163.93287 8327 ft 99 kts 238°
2026-04-28 17:56 54.50850 -163.94390 8327 ft 99 kts 238°
2026-04-28 17:57 54.50613 -163.95497 8326 ft 99 kts 238°
2026-04-28 17:57 54.50376 -163.96601 8326 ft 99 kts 238°
2026-04-28 17:57 54.50138 -163.97707 8326 ft 99 kts 238°
2026-04-28 17:57 54.49898 -163.98827 8325 ft 99 kts 238°
2026-04-28 17:58 54.49660 -163.99932 8325 ft 99 kts 238°
2026-04-28 17:58 54.49422 -164.01033 8325 ft 98 kts 240°
2026-04-28 17:58 54.49187 -164.02124 8324 ft 97 kts 240°
2026-04-28 17:58 54.48952 -164.03212 8324 ft 97 kts 240°
2026-04-28 17:59 54.48717 -164.04298 8311 ft 98 kts 240°
2026-04-28 17:59 54.48482 -164.05391 8303 ft 98 kts 240°
2026-04-28 17:59 54.48248 -164.06480 8301 ft 97 kts 240°
2026-04-28 17:59 54.48013 -164.07565 8299 ft 97 kts 240°
2026-04-28 18:00 54.47779 -164.08647 8299 ft 97 kts 240°
2026-04-28 18:00 54.47545 -164.09728 8298 ft 96 kts 240°
2026-04-28 18:00 54.47312 -164.10805 8298 ft 96 kts 240°
2026-04-28 18:00 54.47079 -164.11883 8297 ft 96 kts 240°
2026-04-28 18:01 54.46842 -164.12974 8297 ft 96 kts 240°
2026-04-28 18:01 54.46610 -164.14048 8301 ft 96 kts 240°
2026-04-28 18:01 54.46377 -164.15120 8302 ft 96 kts 240°
2026-04-28 18:01 54.46145 -164.16192 8302 ft 96 kts 240°
2026-04-28 18:02 54.45912 -164.17265 8302 ft 96 kts 240°
2026-04-28 18:02 54.45679 -164.18338 8302 ft 96 kts 240°
2026-04-28 18:02 54.45446 -164.19414 8302 ft 96 kts 240°
2026-04-28 18:02 54.45213 -164.20487 8301 ft 96 kts 240°
2026-04-28 18:03 54.44979 -164.21562 8301 ft 96 kts 240°
2026-04-28 18:03 54.44746 -164.22635 8300 ft 96 kts 240°
2026-04-28 18:03 54.44513 -164.23709 8300 ft 96 kts 240°
2026-04-28 18:03 54.44279 -164.24784 8300 ft 96 kts 240°
2026-04-28 18:04 54.44045 -164.25858 8299 ft 96 kts 240°
2026-04-28 18:04 54.43808 -164.26945 8299 ft 96 kts 240°
2026-04-28 18:04 54.43574 -164.28019 8299 ft 96 kts 240°
2026-04-28 18:04 54.43340 -164.29093 8298 ft 96 kts 240°
2026-04-28 18:05 54.43106 -164.30166 8298 ft 96 kts 240°
2026-04-28 18:05 54.42950 -164.30879 8297 ft 96 kts 240°
2026-04-28 18:05 54.42637 -164.32313 8297 ft 96 kts 239°
2026-04-28 18:05 54.42402 -164.33387 8297 ft 96 kts 239°
2026-04-28 18:06 54.42168 -164.34461 8296 ft 96 kts 239°
2026-04-28 18:06 54.41932 -164.35538 8296 ft 96 kts 239°
2026-04-28 18:06 54.41697 -164.36613 8296 ft 96 kts 239°
2026-04-28 18:06 54.41461 -164.37690 8295 ft 96 kts 239°
2026-04-28 18:07 54.41226 -164.38763 8295 ft 96 kts 239°
2026-04-28 18:07 54.40990 -164.39840 8295 ft 96 kts 239°
2026-04-28 18:07 54.40751 -164.40930 8294 ft 96 kts 239°
2026-04-28 18:07 54.40515 -164.42006 8294 ft 96 kts 239°
2026-04-28 18:08 54.40279 -164.43079 8294 ft 96 kts 239°
2026-04-28 18:08 54.40043 -164.44154 8293 ft 96 kts 239°
2026-04-28 18:08 54.39807 -164.45231 8293 ft 96 kts 239°
2026-04-28 18:08 54.39570 -164.46305 8292 ft 96 kts 239°
2026-04-28 18:09 54.39334 -164.47378 8292 ft 96 kts 239°
2026-04-28 18:09 54.39098 -164.48452 8292 ft 96 kts 239°
2026-04-28 18:09 54.38861 -164.49529 8292 ft 96 kts 239°
2026-04-28 18:09 54.38624 -164.50602 8291 ft 96 kts 239°
2026-04-28 18:10 54.38387 -164.51677 8291 ft 96 kts 239°
2026-04-28 18:10 54.38151 -164.52749 8291 ft 96 kts 239°
2026-04-28 18:10 54.37913 -164.53824 8290 ft 96 kts 239°
2026-04-28 18:10 54.37673 -164.54913 8290 ft 97 kts 239°
2026-04-28 18:11 54.37436 -164.55988 8290 ft 97 kts 239°
2026-04-28 18:11 54.37198 -164.57064 8289 ft 97 kts 239°
2026-04-28 18:11 54.36960 -164.58141 8289 ft 97 kts 239°
2026-04-28 18:11 54.36722 -164.59216 8289 ft 97 kts 239°
2026-04-28 18:12 54.36484 -164.60291 8289 ft 97 kts 239°
2026-04-28 18:12 54.36246 -164.61368 8288 ft 97 kts 239°
2026-04-28 18:12 54.36007 -164.62444 8288 ft 97 kts 239°
2026-04-28 18:12 54.35769 -164.63520 8288 ft 97 kts 239°
2026-04-28 18:13 54.35530 -164.64595 8287 ft 97 kts 239°
2026-04-28 18:13 54.35292 -164.65670 8287 ft 97 kts 239°
2026-04-28 18:13 54.35053 -164.66745 8287 ft 97 kts 239°
2026-04-28 18:13 54.34811 -164.67835 8287 ft 97 kts 239°
2026-04-28 18:14 54.34572 -164.68910 8286 ft 97 kts 239°
2026-04-28 18:14 54.34333 -164.69986 8286 ft 97 kts 239°
2026-04-28 18:14 54.34093 -164.71061 8286 ft 97 kts 239°
2026-04-28 18:14 54.33853 -164.72138 8286 ft 97 kts 239°
2026-04-28 18:15 54.33614 -164.73215 8285 ft 97 kts 239°
2026-04-28 18:15 54.33373 -164.74294 8285 ft 97 kts 239°
2026-04-28 18:15 54.33134 -164.75369 8285 ft 97 kts 239°
2026-04-28 18:15 54.32892 -164.76449 8285 ft 97 kts 239°
2026-04-28 18:16 54.32652 -164.77527 8285 ft 97 kts 239°
2026-04-28 18:16 54.32411 -164.78606 8284 ft 97 kts 239°
2026-04-28 18:16 54.32170 -164.79685 8284 ft 97 kts 239°
2026-04-28 18:16 54.31929 -164.80766 8284 ft 97 kts 239°
2026-04-28 18:17 54.31684 -164.81858 8284 ft 97 kts 239°
2026-04-28 18:17 54.31443 -164.82938 8284 ft 97 kts 239°
2026-04-28 18:17 54.31201 -164.84016 8283 ft 97 kts 239°
2026-04-28 18:17 54.30959 -164.85096 8283 ft 97 kts 239°
2026-04-28 18:18 54.30718 -164.86174 8283 ft 97 kts 239°
2026-04-28 18:18 54.30475 -164.87256 8283 ft 97 kts 239°
2026-04-28 18:18 54.30233 -164.88335 8283 ft 97 kts 239°
2026-04-28 18:18 54.30073 -164.89052 8283 ft 97 kts 239°
2026-04-28 18:19 54.29748 -164.90496 8282 ft 97 kts 239°
2026-04-28 18:19 54.29505 -164.91579 8282 ft 98 kts 239°
2026-04-28 18:19 54.29261 -164.92665 8281 ft 98 kts 239°
2026-04-28 18:19 54.29016 -164.93753 8281 ft 98 kts 239°
2026-04-28 18:20 54.28771 -164.94849 8309 ft 96 kts 239°
2026-04-28 18:20 54.28537 -164.95879 8368 ft 92 kts 239°
2026-04-28 18:20 54.28306 -164.96881 8426 ft 90 kts 238°
2026-04-28 18:20 54.28079 -164.97863 8475 ft 89 kts 238°
2026-04-28 18:21 54.27848 -164.98872 8492 ft 91 kts 239°
2026-04-28 18:21 54.27618 -164.99895 8498 ft 93 kts 239°
2026-04-28 18:21 54.27385 -165.00940 8500 ft 95 kts 239°
2026-04-28 18:21 54.27148 -165.02001 8501 ft 96 kts 239°
2026-04-28 18:22 54.26909 -165.03071 8501 ft 97 kts 239°
2026-04-28 18:22 54.26668 -165.04148 8501 ft 97 kts 239°
2026-04-28 18:22 54.26424 -165.05231 8501 ft 98 kts 239°
2026-04-28 18:22 54.26180 -165.06316 8501 ft 98 kts 239°
2026-04-28 18:23 54.25934 -165.07403 8501 ft 98 kts 239°
2026-04-28 18:23 54.25689 -165.08488 8500 ft 98 kts 239°
2026-04-28 18:23 54.25443 -165.09576 8500 ft 98 kts 239°
2026-04-28 18:23 54.25196 -165.10665 8499 ft 98 kts 239°
2026-04-28 18:24 54.24949 -165.11752 8499 ft 98 kts 239°
2026-04-28 18:24 54.24866 -165.12119 8499 ft 98 kts 239°
2026-04-28 18:24 54.24536 -165.13573 8499 ft 98 kts 239°
2026-04-28 18:24 54.24289 -165.14659 8499 ft 98 kts 239°
2026-04-28 18:25 54.24042 -165.15747 8499 ft 98 kts 239°
2026-04-28 18:25 54.23794 -165.16835 8499 ft 98 kts 239°
2026-04-28 18:25 54.23547 -165.17920 8499 ft 98 kts 239°
2026-04-28 18:26 54.23051 -165.20097 8499 ft 98 kts 239°
2026-04-28 18:26 54.22803 -165.21187 8499 ft 98 kts 239°
2026-04-28 18:26 54.22552 -165.22289 8499 ft 98 kts 239°
2026-04-28 18:26 54.22303 -165.23377 8498 ft 99 kts 239°
2026-04-28 18:27 54.22054 -165.24468 8498 ft 99 kts 239°
2026-04-28 18:27 54.21806 -165.25556 8499 ft 99 kts 239°
2026-04-28 18:27 54.21557 -165.26646 8499 ft 99 kts 239°
2026-04-28 18:27 54.21308 -165.27734 8498 ft 99 kts 239°
2026-04-28 18:28 54.21059 -165.28820 8499 ft 98 kts 239°
2026-04-28 18:28 54.20810 -165.29908 8498 ft 99 kts 239°
2026-04-28 18:28 54.20560 -165.30997 8499 ft 99 kts 239°
2026-04-28 18:28 54.20311 -165.32085 8498 ft 99 kts 239°
2026-04-28 18:29 54.20061 -165.33173 8498 ft 99 kts 239°
2026-04-28 18:29 54.19810 -165.34266 8498 ft 99 kts 239°
2026-04-28 18:29 54.19560 -165.35354 8498 ft 98 kts 239°
2026-04-28 18:29 54.19310 -165.36442 8500 ft 98 kts 239°
2026-04-28 18:30 54.19060 -165.37528 8500 ft 99 kts 239°
2026-04-28 18:30 54.18895 -165.38249 8500 ft 99 kts 239°
2026-04-28 18:30 54.18560 -165.39705 8500 ft 99 kts 239°
2026-04-28 18:30 54.18309 -165.40794 8500 ft 99 kts 239°
2026-04-28 18:31 54.18057 -165.41885 8500 ft 99 kts 239°
2026-04-28 18:31 54.17806 -165.42972 8500 ft 99 kts 239°
2026-04-28 18:31 54.17555 -165.44062 8501 ft 99 kts 239°
2026-04-28 18:31 54.17299 -165.45166 8500 ft 99 kts 239°
2026-04-28 18:32 54.17047 -165.46255 8501 ft 99 kts 239°
2026-04-28 18:32 54.16795 -165.47343 8501 ft 99 kts 239°
2026-04-28 18:32 54.16543 -165.48433 8501 ft 99 kts 239°
2026-04-28 18:32 54.16290 -165.49522 8501 ft 99 kts 238°
2026-04-28 18:33 54.16037 -165.50610 8501 ft 99 kts 238°
2026-04-28 18:33 54.15784 -165.51697 8501 ft 99 kts 238°
2026-04-28 18:33 54.15529 -165.52786 8501 ft 99 kts 238°
2026-04-28 18:33 54.15275 -165.53873 8501 ft 99 kts 238°
2026-04-28 18:34 54.15020 -165.54957 8501 ft 99 kts 238°
2026-04-28 18:34 54.14763 -165.56040 8501 ft 99 kts 238°
2026-04-28 18:34 54.14503 -165.57124 8501 ft 99 kts 238°
2026-04-28 18:34 54.14236 -165.58199 8501 ft 98 kts 237°
2026-04-28 18:35 54.13902 -165.59211 8501 ft 95 kts 227°
2026-04-28 18:35 54.13500 -165.60100 8501 ft 95 kts 224°
2026-04-28 18:35 54.13076 -165.60956 8501 ft 94 kts 223°
2026-04-28 18:35 54.12644 -165.61797 8502 ft 94 kts 223°
2026-04-28 18:36 54.12210 -165.62631 8502 ft 94 kts 222°
2026-04-28 18:36 54.11772 -165.63467 8463 ft 98 kts 222°
2026-04-28 18:36 54.11310 -165.64354 8344 ft 98 kts 223°
2026-04-28 18:36 54.10891 -165.65155 8211 ft 84 kts 221°
2026-04-28 18:37 54.10513 -165.65836 8062 ft 75 kts 220°
2026-04-28 18:37 54.10163 -165.66462 7918 ft 73 kts 220°
2026-04-28 18:37 54.09819 -165.67096 7783 ft 73 kts 220°
2026-04-28 18:37 54.09474 -165.67747 7654 ft 75 kts 221°
2026-04-28 18:38 54.09121 -165.68417 7527 ft 75 kts 221°
2026-04-28 18:38 54.08774 -165.69078 7401 ft 75 kts 220°
2026-04-28 18:38 54.08431 -165.69727 7275 ft 73 kts 220°
2026-04-28 18:38 54.08091 -165.70370 7148 ft 73 kts 220°
2026-04-28 18:39 54.07754 -165.71004 7019 ft 72 kts 220°
2026-04-28 18:39 54.07423 -165.71628 6890 ft 71 kts 220°
2026-04-28 18:39 54.07097 -165.72242 6762 ft 70 kts 220°
2026-04-28 18:39 54.06772 -165.72853 6636 ft 69 kts 220°
2026-04-28 18:40 54.06452 -165.73458 6510 ft 69 kts 220°
2026-04-28 18:40 54.06130 -165.74066 6385 ft 70 kts 220°
2026-04-28 18:40 54.05806 -165.74679 6262 ft 70 kts 220°
2026-04-28 18:40 54.05482 -165.75294 6139 ft 70 kts 220°
2026-04-28 18:41 54.05156 -165.75911 6016 ft 70 kts 220°
2026-04-28 18:41 54.04830 -165.76528 5893 ft 70 kts 220°
2026-04-28 18:41 54.04499 -165.77154 5767 ft 70 kts 220°
2026-04-28 18:41 54.04171 -165.77773 5644 ft 71 kts 220°
2026-04-28 18:42 54.03843 -165.78393 5521 ft 71 kts 219°
2026-04-28 18:42 54.03517 -165.79010 5395 ft 70 kts 219°
2026-04-28 18:42 54.03192 -165.79622 5269 ft 69 kts 219°
2026-04-28 18:42 54.02870 -165.80228 5142 ft 69 kts 219°
2026-04-28 18:43 54.02548 -165.80833 5016 ft 69 kts 219°
2026-04-28 18:43 54.02226 -165.81439 4890 ft 69 kts 218°
2026-04-28 18:43 54.01905 -165.82043 4764 ft 69 kts 218°
2026-04-28 18:43 54.01583 -165.82649 4639 ft 69 kts 218°
2026-04-28 18:44 54.01261 -165.83254 4514 ft 69 kts 218°
2026-04-28 18:44 54.00616 -165.84465 4264 ft 69 kts 218°
2026-04-28 18:44 54.00287 -165.85079 4138 ft 69 kts 217°
2026-04-28 18:45 53.99962 -165.85684 4014 ft 69 kts 217°
2026-04-28 18:45 53.99635 -165.86279 3892 ft 68 kts 223°
2026-04-28 18:45 53.99317 -165.86864 3769 ft 68 kts 226°
2026-04-28 18:45 53.99294 -165.87730 3643 ft 82 kts 267°
2026-04-28 18:46 53.99395 -165.88657 3532 ft 78 kts 261°
2026-04-28 18:46 53.99456 -165.89571 3415 ft 78 kts 259°
2026-04-28 18:46 53.99506 -165.90482 3297 ft 77 kts 258°
2026-04-28 18:46 53.99552 -165.91391 3177 ft 78 kts 257°
2026-04-28 18:47 53.99596 -165.92302 3057 ft 78 kts 257°
2026-04-28 18:47 53.99641 -165.93220 2935 ft 78 kts 257°
2026-04-28 18:47 53.99686 -165.94141 2814 ft 78 kts 257°
2026-04-28 18:47 53.99732 -165.95076 2689 ft 79 kts 258°
2026-04-28 18:48 53.99777 -165.96000 2563 ft 78 kts 258°
2026-04-28 18:48 53.99820 -165.96907 2434 ft 76 kts 257°
2026-04-28 18:48 53.99861 -165.97804 2305 ft 77 kts 257°
2026-04-28 18:48 53.99905 -165.98712 2176 ft 76 kts 258°
2026-04-28 18:49 53.99946 -165.99584 2041 ft 73 kts 257°
2026-04-28 18:49 53.99970 -166.00146 2010 ft 71 kts 256°
2026-04-28 18:49 54.00024 -166.01346 2015 ft 79 kts 258°
2026-04-28 18:49 54.00073 -166.02277 2014 ft 79 kts 258°
2026-04-28 18:50 54.00120 -166.03214 2012 ft 80 kts 258°
2026-04-28 18:50 54.00167 -166.04149 2007 ft 79 kts 258°
2026-04-28 18:50 54.00210 -166.05067 2004 ft 77 kts 257°
2026-04-28 18:50 54.00251 -166.05975 2002 ft 77 kts 257°
2026-04-28 18:51 54.00293 -166.06891 2002 ft 78 kts 257°
2026-04-28 18:51 54.00338 -166.07824 2002 ft 78 kts 257°
2026-04-28 18:51 54.00382 -166.08748 2002 ft 79 kts 257°
2026-04-28 18:51 54.00426 -166.09673 2002 ft 79 kts 257°
2026-04-28 18:52 54.00469 -166.10601 2002 ft 79 kts 257°
2026-04-28 18:52 54.00513 -166.11527 2002 ft 79 kts 257°
2026-04-28 18:52 54.00556 -166.12452 2001 ft 79 kts 257°
2026-04-28 18:52 54.00599 -166.13379 2001 ft 79 kts 257°
2026-04-28 18:53 54.00642 -166.14302 2001 ft 79 kts 257°
2026-04-28 18:53 54.00685 -166.15226 2001 ft 79 kts 257°
2026-04-28 18:53 54.00728 -166.16150 2001 ft 79 kts 257°
2026-04-28 18:53 54.00770 -166.17075 2001 ft 78 kts 257°
2026-04-28 18:54 54.00813 -166.17996 2001 ft 78 kts 257°
2026-04-28 18:54 54.00855 -166.18920 2001 ft 78 kts 257°
2026-04-28 18:54 54.00898 -166.19855 2001 ft 78 kts 257°
2026-04-28 18:54 54.00941 -166.20776 2001 ft 78 kts 257°
2026-04-28 18:55 54.00983 -166.21698 2001 ft 78 kts 257°
2026-04-28 18:55 54.01011 -166.22309 2001 ft 78 kts 257°
2026-04-28 18:55 54.01067 -166.23541 2001 ft 78 kts 257°
2026-04-28 18:55 54.01109 -166.24462 2000 ft 78 kts 257°
2026-04-28 18:56 54.01151 -166.25387 2000 ft 79 kts 257°
2026-04-28 18:56 54.01193 -166.26311 2000 ft 79 kts 257°
2026-04-28 18:56 54.01235 -166.27239 2001 ft 79 kts 257°
2026-04-28 18:56 54.01276 -166.28164 2001 ft 79 kts 257°
2026-04-28 18:57 54.01318 -166.29089 2001 ft 79 kts 257°
2026-04-28 18:57 54.01359 -166.30015 2001 ft 79 kts 257°
2026-04-28 18:57 54.01401 -166.30940 2001 ft 79 kts 257°
2026-04-28 18:57 54.01442 -166.31879 2001 ft 79 kts 257°
2026-04-28 18:58 54.01482 -166.32793 2001 ft 79 kts 257°
2026-04-28 18:58 54.01522 -166.33734 1999 ft 80 kts 259°
2026-04-28 18:58 54.01564 -166.34673 2000 ft 80 kts 259°
2026-04-28 18:58 54.01605 -166.35614 2000 ft 80 kts 259°
2026-04-28 18:59 54.01644 -166.36557 2001 ft 80 kts 259°
2026-04-28 18:59 54.01681 -166.37500 2001 ft 80 kts 259°
2026-04-28 18:59 54.01712 -166.38442 2001 ft 80 kts 258°
2026-04-28 18:59 54.01673 -166.39350 1999 ft 74 kts 242°
2026-04-28 19:00 54.01485 -166.40150 2001 ft 72 kts 236°
2026-04-28 19:00 54.01274 -166.40925 2001 ft 72 kts 235°
2026-04-28 19:00 54.01057 -166.41691 2001 ft 72 kts 234°
2026-04-28 19:00 54.00837 -166.42456 2001 ft 72 kts 234°
2026-04-28 19:01 54.00616 -166.43222 2001 ft 72 kts 234°
2026-04-28 19:01 54.00392 -166.43999 2001 ft 72 kts 234°
2026-04-28 19:01 54.00171 -166.44764 2001 ft 72 kts 234°
2026-04-28 19:01 53.99950 -166.45530 2001 ft 72 kts 234°
2026-04-28 19:02 53.99729 -166.46294 2002 ft 72 kts 235°
2026-04-28 19:02 53.99509 -166.47054 2001 ft 72 kts 235°
2026-04-28 19:02 53.99288 -166.47814 2001 ft 72 kts 235°
2026-04-28 19:02 53.99068 -166.48572 2001 ft 72 kts 235°
2026-04-28 19:03 53.98849 -166.49328 2001 ft 72 kts 235°
2026-04-28 19:03 53.98629 -166.50084 2001 ft 72 kts 235°
2026-04-28 19:03 53.98409 -166.50841 2000 ft 72 kts 235°
2026-04-28 19:03 53.98189 -166.51596 2001 ft 71 kts 235°
2026-04-28 19:04 53.97989 -166.52278 2000 ft 71 kts 235°
2026-04-28 19:04 53.97765 -166.53039 2001 ft 71 kts 235°
2026-04-28 19:04 53.97545 -166.53780 2001 ft 71 kts 234°
2026-04-28 19:04 53.97314 -166.54535 2001 ft 71 kts 234°
2026-04-28 19:05 53.96998 -166.55145 2000 ft 69 kts 214°
2026-04-28 19:05 53.96604 -166.55601 2001 ft 69 kts 212°
2026-04-28 19:05 53.96202 -166.56034 2013 ft 67 kts 211°
2026-04-28 19:05 53.95804 -166.56332 1954 ft 66 kts 199°
2026-04-28 19:06 53.95330 -166.56540 1824 ft 70 kts 199°
2026-04-28 19:06 53.95021 -166.56655 1794 ft 68 kts 197°
2026-04-28 19:06 53.94397 -166.56914 1687 ft 68 kts 196°
2026-04-28 19:06 53.93916 -166.56979 1601 ft 72 kts 188°
2026-04-28 19:07 53.93417 -166.56919 1528 ft 72 kts 184°
2026-04-28 19:07 53.92917 -166.56847 1450 ft 72 kts 184°
2026-04-28 19:07 53.92407 -166.56786 1367 ft 73 kts 185°
2026-04-28 19:07 53.91905 -166.56779 1299 ft 72 kts 187°
2026-04-28 19:08 53.91403 -166.56803 1213 ft 73 kts 188°
2026-04-28 19:08 53.90895 -166.56831 1153 ft 72 kts 188°
2026-04-28 19:08 53.90399 -166.56877 1125 ft 71 kts 189°
2026-04-28 19:08 53.89907 -166.56863 1119 ft 73 kts 175°
2026-04-28 19:09 53.89441 -166.56436 1107 ft 79 kts 154°
2026-04-28 19:09 53.89049 -166.55759 1104 ft 82 kts 143°
2026-04-28 19:09 53.88652 -166.55121 1062 ft 73 kts 152°
2026-04-28 19:09 53.88283 -166.54614 1009 ft 66 kts 156°
2026-04-28 19:10 53.87896 -166.54214 912 ft 67 kts 164°
2026-04-28 19:10 53.87507 -166.53751 785 ft 70 kts 139°
2026-04-28 19:10 53.87444 -166.52890 733 ft 81 kts 78°
2026-04-28 19:10 53.87855 -166.52279 691 ft 85 kts 15°
2026-04-28 19:11 53.88408 -166.52289 585 ft 77 kts 334°
2026-04-28 19:11 53.88819 -166.52779 403 ft 69 kts 308°
2026-04-28 19:11 53.89171 -166.53353 198 ft 71 kts 310°
2026-04-28 19:11 53.89534 -166.53902 38 ft 66 kts 313°
2026-04-28 19:12 53.89817 -166.54331 26 ft 44 kts 314°
2026-04-28 19:12 53.90010 -166.54619 26 ft 32 kts 313°
2026-04-28 19:12 53.90149 -166.54827 26 ft 21 kts 318°
2026-04-28 19:12 53.90228 -166.54939 26 ft 6 kts 308°
2026-04-28 19:13 53.90192 -166.54919 26 ft 14 kts 140°
2026-04-28 19:13 53.90094 -166.54783 26 ft 22 kts 139°
2026-04-28 19:13 53.89977 -166.54598 26 ft 23 kts 137°
2026-04-28 19:13 53.89862 -166.54417 26 ft 22 kts 136°
2026-04-28 19:14 53.89763 -166.54262 26 ft 16 kts 139°
2026-04-28 19:14 53.89703 -166.54173 26 ft 9 kts 138°
2026-04-28 19:14 53.89626 -166.54057 26 ft 15 kts 139°
2026-04-28 19:14 53.89566 -166.54061 26 ft 8 kts 232°
2026-04-28 19:15 53.89522 -166.54096 26 ft 6 kts 172°
2026-04-28 19:15 53.89502 -166.54094 26 ft 0 kts 178°